| time (UTC) | temp F | wind direction | speed knots | gust knots | rain 1hr in | rain 24hr in | rain mn in | humidity % | barometer mb |
| 20260502130158 | 51 | 327 | 7.8 | 12.2 | 0.00 | 0.00 | 0.00 | 30 | 1018.4 |
| 20260502123158 | 51 | 331 | 8.7 | 12.2 | 0.00 | 0.00 | 0.00 | 31 | 1018.4 |
| 20260502120158 | 51 | 329 | 7.8 | 11.3 | 0.00 | 0.00 | 0.00 | 29 | 1018.5 |
| 20260502115158 | 52 | 325 | 6.1 | 9.6 | 0.00 | 0.00 | 0.00 | 29 | 1018.5 |
| 20260502113159 | 51 | 333 | 1.7 | 9.6 | 0.00 | 0.00 | 0.00 | 29 | 1018.7 |
| 20260502112158 | 52 | 338 | 5.2 | 11.3 | 0.00 | 0.00 | 0.00 | 29 | 1018.7 |
| 20260502111158 | 52 | 274 | 5.2 | 12.2 | 0.00 | 0.00 | 0.00 | 29 | 1018.7 |
| 20260502110158 | 52 | 329 | 7.0 | 10.4 | 0.00 | 0.00 | 0.00 | 29 | 1018.6 |
| 20260502105158 | 52 | 262 | 6.1 | 10.4 | 0.00 | 0.00 | 0.00 | 28 | 1018.7 |
| 20260502104158 | 52 | 337 | 4.3 | 9.6 | 0.00 | 0.00 | 0.00 | 29 | 1018.7 |
| 20260502103158 | 52 | 290 | 6.1 | 11.3 | 0.00 | 0.00 | 0.00 | 29 | 1018.6 |
| 20260502102158 | 52 | 337 | 6.1 | 13.9 | 0.00 | 0.00 | 0.00 | 29 | 1018.6 |
| 20260502101158 | 53 | 338 | 2.6 | 13.0 | 0.00 | 0.00 | 0.00 | 28 | 1018.6 |
| 20260502100158 | 53 | 301 | 4.3 | 13.0 | 0.00 | 0.00 | 0.00 | 29 | 1018.5 |
| 20260502091158 | 53 | 344 | 2.6 | 9.6 | 0.00 | 0.00 | 0.00 | 27 | 1018.8 |
| 20260502090158 | 54 | 315 | 4.3 | 11.3 | 0.00 | 0.00 | 0.00 | 26 | 1018.8 |
| 20260502071158 | 53 | 286 | 2.6 | 9.6 | 0.00 | 0.00 | 0.00 | 28 | 1019.1 |
| 20260502070158 | 53 | 268 | 7.0 | 10.4 | 0.00 | 0.00 | 0.00 | 27 | 1019.0 |
| 20260502065158 | 53 | 332 | 2.6 | 11.3 | 0.00 | 0.00 | 0.00 | 27 | 1018.9 |
| 20260502064159 | 53 | 340 | 4.3 | 12.2 | 0.00 | 0.00 | 0.00 | 27 | 1018.9 |
| 20260502063159 | 53 | 268 | 7.8 | 13.9 | 0.00 | 0.00 | 0.00 | 27 | 1019.0 |
| 20260502062159 | 52 | 337 | 7.0 | 13.0 | 0.00 | 0.00 | 0.00 | 27 | 1018.9 |
| 20260502061159 | 52 | 331 | 6.1 | 12.2 | 0.00 | 0.00 | 0.00 | 27 | 1018.8 |
| 20260502060159 | 53 | 341 | 4.3 | 9.6 | 0.00 | 0.00 | 0.00 | 27 | 1018.6 |
| 20260502055159 | 53 | 355 | 5.2 | 10.4 | 0.00 | 0.00 | 0.00 | 26 | 1018.6 |
| 20260502054159 | 53 | 349 | 4.3 | 10.4 | 0.00 | 0.00 | 0.00 | 26 | 1018.6 |
| 20260502053159 | 53 | 4 | 7.8 | 14.8 | 0.00 | 0.00 | 0.00 | 25 | 1018.7 |
| 20260502052159 | 53 | 6 | 6.1 | 13.9 | 0.00 | 0.00 | 0.00 | 25 | 1018.7 |
| 20260502051159 | 54 | 7 | 8.7 | 12.2 | 0.00 | 0.00 | 0.00 | 24 | 1018.7 |
| 20260502050159 | 54 | 7 | 5.2 | 17.4 | 0.00 | 0.00 | 0.00 | 23 | 1018.6 |
| 20260502045159 | 54 | 22 | 9.6 | 15.6 | 0.00 | 0.00 | 0.00 | 23 | 1018.5 |
| 20260502044159 | 54 | 2 | 11.3 | 17.4 | 0.00 | 0.00 | 0.00 | 22 | 1018.4 |
| 20260502042159 | 56 | 17 | 9.6 | 13.9 | 0.00 | 0.00 | 0.00 | 22 | 1018.2 |
| 20260502040159 | 56 | 9 | 7.8 | 11.3 | 0.00 | 0.00 | 0.00 | 20 | 1018.0 |
| 20260502035159 | 57 | 349 | 4.3 | 8.7 | 0.00 | 0.00 | 0.00 | 20 | 1017.8 |
| 20260502034159 | 57 | 21 | 7.0 | 13.9 | 0.00 | 0.00 | 0.00 | 20 | 1017.6 |
| 20260502033159 | 57 | 7 | 7.0 | 13.0 | 0.00 | 0.00 | 0.00 | 20 | 1017.5 |
| 20260502032159 | 57 | 21 | 1.7 | 5.2 | 0.00 | 0.00 | 0.00 | 19 | 1017.3 |
| 20260502031159 | 58 | 23 | 2.6 | 8.7 | 0.00 | 0.00 | 0.00 | 19 | 1017.1 |
| 20260502030159 | 58 | 35 | 5.2 | 13.0 | 0.00 | 0.00 | 0.00 | 18 | 1017.0 |
| 20260502025159 | 58 | 64 | 7.8 | 13.0 | 0.00 | 0.00 | 0.00 | 18 | 1016.8 |
| 20260502024159 | 59 | 57 | 6.1 | 13.0 | 0.00 | 0.00 | 0.00 | 18 | 1016.7 |
| 20260502023159 | 59 | 33 | 6.1 | 12.2 | 0.00 | 0.00 | 0.00 | 18 | 1016.5 |
| 20260502022159 | 60 | 74 | 10.4 | 13.9 | 0.00 | 0.00 | 0.00 | 1016.3 | |
| 20260502021159 | 60 | 57 | 7.0 | 13.9 | 0.00 | 0.00 | 0.00 | 17 | 1016.4 |
| 20260502020159 | 60 | 41 | 4.3 | 13.0 | 0.00 | 0.00 | 0.00 | 18 | 1016.2 |
| 20260502015159 | 61 | 54 | 9.6 | 13.9 | 0.00 | 0.00 | 0.00 | 18 | 1016.1 |
| 20260502014159 | 61 | 30 | 6.1 | 12.2 | 0.00 | 0.00 | 0.00 | 18 | 1015.9 |
| 20260502013159 | 62 | 24 | 8.7 | 14.8 | 0.00 | 0.00 | 0.00 | 19 | 1015.8 |
| 20260502012159 | 62 | 74 | 7.8 | 15.6 | 0.00 | 0.00 | 0.00 | 18 | 1015.7 |
| 20260502011159 | 63 | 79 | 9.6 | 20.0 | 0.00 | 0.00 | 0.00 | 18 | 1015.6 |
| 20260502010159 | 64 | 38 | 6.1 | 13.0 | 0.00 | 0.00 | 0.00 | 18 | 1015.6 |
| 20260502005159 | 63 | 60 | 12.2 | 20.0 | 0.00 | 0.00 | 0.00 | 17 | 1015.5 |
| 20260502004200 | 64 | 64 | 8.7 | 16.5 | 0.00 | 0.00 | 0.00 | 18 | 1015.3 |
| 20260502003200 | 64 | 31 | 7.8 | 18.2 | 0.00 | 0.00 | 0.00 | 18 | 1015.3 |
| 20260502002159 | 65 | 28 | 12.2 | 14.8 | 0.00 | 0.00 | 0.00 | 17 | 1015.2 |
| 20260502001200 | 66 | 66 | 8.7 | 12.2 | 0.00 | 0.00 | 0.00 | 15 | 1015.2 |
| 20260502000200 | 66 | 13 | 9.6 | 19.1 | 0.00 | 0.00 | 0.00 | 16 | 1015.4 |
| 20260501235200 | 66 | 49 | 7.8 | 13.9 | 0.00 | 0.00 | 0.00 | 16 | 1015.1 |
| 20260501232200 | 66 | 349 | 10.4 | 18.2 | 0.00 | 0.00 | 0.00 | 16 | 1014.9 |
| 20260501231200 | 66 | 40 | 13.0 | 19.1 | 0.00 | 0.00 | 0.00 | 16 | 1014.8 |
| 20260501230200 | 66 | 31 | 11.3 | 20.9 | 0.00 | 0.00 | 0.00 | 16 | 1014.8 |
| 20260501225201 | 67 | 352 | 10.4 | 19.1 | 0.00 | 0.00 | 0.00 | 17 | 1014.9 |
| 20260501224200 | 66 | 1 | 8.7 | 16.5 | 0.00 | 0.00 | 0.00 | 18 | 1015.0 |
| 20260501223200 | 68 | 8 | 11.3 | 15.6 | 0.00 | 0.00 | 0.00 | 17 | 1015.1 |
| 20260501222200 | 67 | 11 | 7.8 | 17.4 | 0.00 | 0.00 | 0.00 | 18 | 1015.1 |
| 20260501221201 | 66 | 35 | 13.0 | 20.9 | 0.00 | 0.00 | 0.00 | 17 | 1015.2 |
| 20260501220202 | 65 | 34 | 5.2 | 12.2 | 0.00 | 0.00 | 0.00 | 18 | 1015.3 |
| 20260501215202 | 66 | 4 | 12.2 | 20.9 | 0.00 | 0.00 | 0.00 | 17 | 1015.5 |
| 20260501214202 | 66 | 70 | 5.2 | 9.6 | 0.00 | 0.00 | 0.00 | 19 | 1015.5 |
| 20260501213200 | 65 | 359 | 3.5 | 14.8 | 0.00 | 0.00 | 0.00 | 20 | 1015.7 |
| 20260501210200 | 66 | 72 | 0.9 | 17.4 | 0.00 | 0.00 | 0.00 | 20 | 1015.9 |
| 20260501205200 | 65 | 47 | 8.7 | 20.9 | 0.00 | 0.00 | 0.00 | 20 | 1016.1 |
| 20260501204200 | 66 | 7 | 8.7 | 17.4 | 0.00 | 0.00 | 0.00 | 21 | 1016.1 |
| 20260501203200 | 65 | 351 | 9.6 | 20.0 | 0.00 | 0.00 | 0.00 | 21 | 1016.2 |
| 20260501201200 | 63 | 338 | 13.0 | 19.1 | 0.00 | 0.00 | 0.00 | 22 | 1016.1 |
| 20260501200201 | 64 | 51 | 8.7 | 13.9 | 0.00 | 0.00 | 0.00 | 21 | 1016.2 |
| 20260501195200 | 64 | 44 | 6.1 | 22.6 | 0.00 | 0.00 | 0.00 | 22 | 1016.3 |
| 20260501194200 | 65 | 13 | 11.3 | 17.4 | 0.00 | 0.00 | 0.00 | 21 | 1016.5 |
| 20260501192200 | 65 | 8 | 3.5 | 16.5 | 0.00 | 0.00 | 0.00 | 23 | 1016.6 |
| 20260501191200 | 64 | 3 | 7.8 | 18.2 | 0.00 | 0.00 | 0.00 | 24 | 1016.7 |
| 20260501190201 | 62 | 29 | 10.4 | 14.8 | 0.00 | 0.00 | 0.00 | 25 | 1016.8 |
| 20260501185201 | 62 | 27 | 14.8 | 20.9 | 0.00 | 0.00 | 0.00 | 25 | 1017.0 |
| 20260501183200 | 63 | 62 | 13.0 | 18.2 | 0.00 | 0.00 | 0.00 | 23 | 1017.0 |
| 20260501182200 | 62 | 56 | 10.4 | 18.2 | 0.00 | 0.00 | 0.00 | 23 | 1017.2 |
| 20260501181200 | 62 | 12 | 5.2 | 18.2 | 0.00 | 0.00 | 0.00 | 24 | 1017.2 |
| 20260501175201 | 61 | 44 | 9.6 | 18.2 | 0.00 | 0.00 | 0.00 | 25 | 1017.6 |
| 20260501174200 | 60 | 45 | 12.2 | 20.9 | 0.00 | 0.00 | 0.00 | 23 | 1017.7 |
| 20260501173200 | 61 | 18 | 16.5 | 23.5 | 0.00 | 0.00 | 0.00 | 24 | 1017.7 |
| 20260501172201 | 61 | 30 | 13.9 | 21.7 | 0.00 | 0.00 | 0.00 | 24 | 1017.8 |
| 20260501170200 | 61 | 17 | 8.7 | 19.1 | 0.00 | 0.00 | 0.00 | 26 | 1018.0 |
| 20260501165201 | 60 | 25 | 8.7 | 16.5 | 0.00 | 0.00 | 0.00 | 26 | 1018.0 |
| 20260501164202 | 61 | 15 | 11.3 | 17.4 | 0.00 | 0.00 | 0.00 | 26 | 1017.9 |
| 20260501163201 | 59 | 351 | 13.0 | 20.0 | 0.00 | 0.00 | 0.00 | 26 | 1018.0 |
| 20260501162200 | 58 | 28 | 9.6 | 17.4 | 0.00 | 0.00 | 0.00 | 28 | 1018.0 |
| 20260501161200 | 59 | 28 | 12.2 | 18.2 | 0.00 | 0.00 | 0.00 | 28 | 1018.0 |
| 20260501160201 | 58 | 12 | 14.8 | 20.0 | 0.00 | 0.00 | 0.00 | 27 | 1017.9 |
| 20260501155200 | 58 | 33 | 8.7 | 16.5 | 0.00 | 0.00 | 0.00 | 28 | 1017.9 |
| 20260501154201 | 58 | 357 | 5.2 | 17.4 | 0.00 | 0.00 | 0.00 | 29 | 1017.8 |
| 20260501153201 | 58 | 1 | 9.6 | 19.1 | 0.00 | 0.00 | 0.00 | 29 | 1018.0 |
| 20260501152201 | 57 | 1 | 9.6 | 16.5 | 0.00 | 0.00 | 0.00 | 30 | 1017.0 |
| 20260501151201 | 56 | 344 | 7.8 | 19.1 | 0.00 | 0.00 | 0.00 | 32 | 1016.9 |
| 20260501150201 | 55 | 346 | 12.2 | 17.4 | 0.00 | 0.00 | 0.00 | 30 | 1017.1 |
| 20260501145201 | 55 | 354 | 9.6 | 17.4 | 0.00 | 0.00 | 0.00 | 32 | 1016.9 |
| 20260501144201 | 54 | 345 | 9.6 | 17.4 | 0.00 | 0.00 | 0.00 | 31 | 1016.9 |